This is the latest recevied weather packets stored in our database for station/object KK7MLS-13. If no packets are shown the sender has not sent any weather packets the latest 10 day(s).
| Time | Temp. | Humidity | Pressure | Rain* | Wind** | Luminosity | Snow |
|---|---|---|---|---|---|---|---|
| 1788481463 | 13.89° C | 84% | 1010 hPa | 0 mm | - | 50 W/m² | - |
| 1788481161 | 13.89° C | 83% | 1010.1 hPa | 0 mm | - | 47 W/m² | - |
| 1788480857 | 14.44° C | 82% | 1010.2 hPa | 0 mm | - | 43 W/m² | - |
| 1788480553 | 14.44° C | 82% | 1010.3 hPa | 0 mm | - | 45 W/m² | - |
| 1788480252 | 15° C | 82% | 1010.3 hPa | 0 mm | - | 65 W/m² | - |
| 1788479947 | 15° C | 82% | 1010.3 hPa | 0 mm | - | 82 W/m² | - |
| 1788479643 | 15° C | 81% | 1010.3 hPa | 0 mm | - | 109 W/m² | - |
| 1788479342 | 15° C | 83% | 1010.2 hPa | 0 mm | - | 131 W/m² | - |
| 1788479038 | 15° C | 83% | 1010.3 hPa | 0 mm | - | 174 W/m² | - |
| 1788478734 | 14.44° C | 87% | 1010.2 hPa | 0 mm | - | 182 W/m² | - |
| 1788478430 | 14.44° C | 87% | 1010.1 hPa | 0 mm | - | 183 W/m² | - |
| 1788478129 | 13.89° C | 86% | 1010.1 hPa | 0 mm | - | 155 W/m² | - |
| 1788477825 | 13.89° C | 89% | 1010.2 hPa | 0 mm | - | 97 W/m² | - |
| 1788477525 | 13.89° C | 89% | 1010.2 hPa | 0 mm | - | 88 W/m² | - |
| 1788477219 | 13.89° C | 88% | 1010.4 hPa | 0 mm | - | 100 W/m² | - |
| 1788476915 | 13.33° C | 89% | 1010.3 hPa | 0 mm | - | 99 W/m² | - |
| 1788476610 | 13.33° C | 89% | 1010.6 hPa | 0 mm | - | 96 W/m² | - |
| 1788476306 | 13.33° C | 89% | 1010.5 hPa | 0 mm | - | 86 W/m² | - |
| 1788476002 | 13.33° C | 87% | 1010.7 hPa | 0 mm | - | 79 W/m² | - |
| 1788475698 | 13.33° C | 87% | 1010.7 hPa | 1.27 mm | - | 83 W/m² | - |
| 1788475394 | 13.33° C | 86% | 1010.9 hPa | 1.27 mm | - | 104 W/m² | - |
| 1788475089 | 13.89° C | 86% | 1010.9 hPa | 0 mm | - | 78 W/m² | - |
| 1788474788 | 13.89° C | 86% | 1010.9 hPa | 0 mm | - | 63 W/m² | - |
| 1788474484 | 13.89° C | 83% | 1010.7 hPa | 0 mm | - | 98 W/m² | - |
| 1788474183 | 13.89° C | 83% | 1010.9 hPa | 0 mm | - | 74 W/m² | - |
* Rain latest hour (hover to see other rain measurements)
** Current wind speed in m/s (hover to see current wind gust speed)